Location: Karcze
(52.0945°N, 22.4786°E)
Time: 23:48:19
(UTC+00:00)

Transit 4A - Pass Details

Date: 06 August 2021
Orbit: 871 x 974 km, 66.8° (Epoch: 18 September)

Event Time Altitude Azimuth Distance (km) Brightness Sun altitude
Exits shadow 20:03:01 19° 126° (SE) 1,990 9.0 -13.8°
Maximum altitude 20:04:25 20° 107° (ESE) 1,905 9.1 -14.0°
Drops below altitude 10° 20:08:32 10° 62° (ENE) 2,527 10.1 -14.4°
Sets 20:11:37 0° 46° (NE) 3,469 11.0 -14.6°
